LFBZ

Biarritz-Bayonne/Anglet

Airport
ICAO code
LFBZ
Summary
ICAO Region
EUR
ICAO Territory
Location

Biarritz-Bayonne/Anglet, Aquitaine,

Coordinates
43° 28' 6" N , 1° 31' 23" W
KCC
Airport WX
Fog
Metar
LFBZ 161300Z AUTO 30012KT 270V330 9999 -RA SCT025/// BKN030/// BKN035/// 12/08 Q1023 TEMPO 30015G25KT 4000 SHRA BKN020TCU

Description

International airport serving Biarritz.

Climatology

Temperate Marine climate/Oceanic climate (Köppen climate classification Cfb). Moderately cool summer and comparatively warm winter with a temperature range of only 14°C. Prevailing south-westerly winds from the Atlantic Ocean.

Runways

Designator Length Width Surface Rops
9/27 2250 45 ASP Yes/Yes

Airport map

Aerial View

SKYbrary Partners:

Safety knowledge contributed by: